Skagway, AK

6:44 AM AKDT on May 27, 2017 (GMT -0800)
Skagway

Weather History for PAGY - October, 2011

Change the Weather History Date:

Saturday, October 29, 2011

  Actual Average Record
Temperature  
Mean Temperature 42 °F -  
Max Temperature 46 °F 41 °F 55 °F (1965)
Min Temperature 39 °F 32 °F 19 °F (1984)
Degree Days  
Heating Degree Days 22    
Moisture  
Dew Point 38 °F    
Average Humidity 81    
Maximum Humidity 93    
Minimum Humidity 71    
Precipitation  
Precipitation 0.34 in - - ()
Sea Level Pressure  
Sea Level Pressure 29.34 in    
Wind  
Wind Speed 16 mph (SSW)    
Max Wind Speed 30 mph    
Max Gust Speed 34 mph    
Visibility 9 miles    
Events Rain    
Averages and records for this station are not official NWS values.
T = Trace of Precipitation, MM = Missing Value Source: NWS Daily Summary

Daily Weather History Graph

Daily Weather History Graph

Search for Another Location

Airport or City:

Trip Planner

Search our weather history database for the weather conditions in past years. The results will help you decide how hot, cold, wet, or windy it might be!

Date:

Astronomy

Oct. 29, 2011 Rise Set
Actual Time 8:13 AM AKDT 5:15 PM AKDT
Civil Twilight 7:29 AM AKDT 5:59 PM AKDT
Nautical Twilight 6:41 AM AKDT 6:47 PM AKDT
Astronomical Twilight 5:54 AM AKDT 7:34 PM AKDT
Moon 12:39 PM AKDT (10/29) 6:51 PM AKDT (10/29)
Length of Visible Light 10h 29m
Length of Day
9h 01m
Waxing Crescent, 13% of the Moon is Illuminated
Oct 29
Waxing Crescent
Nov 2
First Quarter
Nov 10
Full
Nov 18
Last Quarter
Nov 24
New

Hourly Weather History & Observations

Time (AKDT) Temp. Windchill Dew Point Humidity Pressure Visibility Wind Dir Wind Speed Gust Speed Precip Events Conditions
12:53 AM 44.1 °F 35.4 °F 39.0 °F 82% 29.47 in 10.0 mi SSW 21.9 mph 27.6 mph N/A   Overcast
1:53 AM 44.1 °F 35.2 °F 39.0 °F 82% 29.48 in 10.0 mi SSW 23.0 mph 27.6 mph 0.01 in Rain Light Rain
2:53 AM 44.1 °F 37.7 °F 37.9 °F 79% 29.47 in 10.0 mi SSW 12.7 mph 23.0 mph 0.00 in   Overcast
3:53 AM 44.1 °F 35.7 °F 39.0 °F 82% 29.46 in 10.0 mi South 20.7 mph 28.8 mph 0.00 in Rain Light Rain
4:53 AM 45.0 °F 39.3 °F 37.9 °F 76% 29.44 in 10.0 mi SSW 11.5 mph 23.0 mph 0.00 in   Overcast
5:53 AM 46.0 °F 38.5 °F 37.0 °F 71% 29.43 in 10.0 mi SSW 19.6 mph 28.8 mph N/A   Mostly Cloudy
6:53 AM 45.0 °F 37.9 °F 39.0 °F 80% 29.41 in 10.0 mi SSW 16.1 mph 24.2 mph 0.01 in Rain Light Rain
7:53 AM 43.0 °F 35.7 °F 39.0 °F 86% 29.38 in 10.0 mi SSW 15.0 mph 23.0 mph 0.02 in Rain Light Rain
8:53 AM 43.0 °F 39.5 °F 39.0 °F 86% 29.34 in 10.0 mi South 5.8 mph - 0.01 in Rain Light Rain
9:49 AM 41.0 °F 38.0 °F 39.2 °F 93% 29.32 in 8.0 mi NE 4.6 mph - 0.03 in Rain Light Rain
9:53 AM 41.0 °F - 39.0 °F 93% 29.33 in 8.0 mi Calm Calm - 0.03 in Rain Light Rain
10:53 AM 41.0 °F 39.0 °F 37.0 °F 86% 29.33 in 6.0 mi East 3.5 mph - 0.08 in Rain Light Rain
11:53 AM 39.9 °F 36.7 °F 37.9 °F 93% 29.33 in 6.0 mi NE 4.6 mph - 0.07 in Rain Light Rain
12:53 PM 39.0 °F 32.8 °F 36.0 °F 89% 29.33 in 6.0 mi NNE 9.2 mph - 0.09 in Rain Light Rain
1:53 PM 43.0 °F - 37.9 °F 82% 29.30 in 10.0 mi Calm Calm - 0.01 in   Overcast
2:04 PM 44.6 °F 38.1 °F 37.4 °F 76% 29.30 in 10.0 mi SSW 13.8 mph 23.0 mph N/A   Overcast
2:42 PM 44.6 °F 36.1 °F 37.4 °F 76% 29.29 in 10.0 mi SW 21.9 mph 28.8 mph N/A   Overcast
2:53 PM 45.0 °F 36.4 °F 37.9 °F 76% 29.29 in 10.0 mi SSW 23.0 mph 31.1 mph N/A   Overcast
3:53 PM 45.0 °F 36.9 °F 37.9 °F 76% 29.28 in 10.0 mi SSW 20.7 mph 27.6 mph N/A   Overcast
4:53 PM 45.0 °F 37.1 °F 39.0 °F 80% 29.26 in 10.0 mi SSW 19.6 mph - 0.00 in   Overcast
5:53 PM 44.1 °F 37.7 °F 39.0 °F 82% 29.26 in 10.0 mi SSW 12.7 mph 21.9 mph 0.00 in Rain Light Rain
6:53 PM 45.0 °F 38.9 °F 37.9 °F 76% 29.27 in 10.0 mi SSW 12.7 mph 23.0 mph 0.00 in   Overcast
7:53 PM 44.1 °F 35.7 °F 39.0 °F 82% 29.26 in 10.0 mi SSW 20.7 mph 33.4 mph 0.01 in Rain Light Rain
8:12 PM 42.8 °F 34.3 °F 37.4 °F 81% 29.26 in 10.0 mi SSW 19.6 mph 28.8 mph 0.00 in Rain Light Rain
8:53 PM 44.1 °F 41.5 °F 36.0 °F 73% 29.28 in 10.0 mi Variable 4.6 mph - 0.00 in   Mostly Cloudy
9:53 PM 44.1 °F 35.7 °F 37.0 °F 76% 29.29 in 10.0 mi SSW 20.7 mph 29.9 mph N/A   Overcast
10:53 PM 45.0 °F 36.6 °F 36.0 °F 71% 29.29 in 10.0 mi SW 21.9 mph 28.8 mph 0.00 in   Mostly Cloudy
11:53 PM 44.1 °F 34.0 °F 37.9 °F 79% 29.29 in 10.0 mi SSW 29.9 mph 34.5 mph 0.00 in   Overcast